Location: Kra?nica
(53.4833°N, 14.6167°E)
Time: 03:22:22
(UTC+00:00)

Daily predictions for brighter satellites

Satellite Brightness Start Highest point End
(mag) Time Altitude Azimuth Time Altitude Azimuth Time Altitude Azimuth
Cosmos 1315 Rocket 4.2 00:04:20 15° SSE 00:06:55 30° E 00:10:22 10° NNE
Cosmos 2228 Rocket 3.3 00:05:20 24° SSW 00:07:58 63° WNW 00:12:28 10° N
Meteor 1-21 4.3 00:04:42 21° S 00:08:36 88° E 00:14:23 10° NNE
Helios 1A Rocket 2.8 00:07:43 25° S 00:09:52 65° WSW 00:13:44 10° NNW
Cosmos 2082 Rocket 2.3 00:07:01 21° SSW 00:10:53 74° ESE 00:16:37 10° NE
Cosmos 2219 Rocket 4.2 00:06:37 10° NNW 00:11:34 30° NE 00:16:31 10° E
Cosmos 1833 Rocket 3.5 00:08:10 11° WSW 00:13:22 45° NW 00:18:46 10° NNE
SL-16 R/B 4.1 00:08:29 10° ESE 00:14:02 35° NE 00:19:38 10° N
BREEZE-M DEB (TANK) 4.3 00:13:11 21° SW 00:14:22 24° SSW 00:20:34 10° SE
CZ-2D R/B 3.7 00:11:34 10° NNE 00:16:18 28° E 00:20:57 10° SSE
Cosmos 724 4.3 00:12:03 16° SW 00:16:52 80° NW 00:22:44 10° NE
Cosmos 1782 Rocket 4.4 00:13:48 10° N 00:18:04 47° ENE 00:22:16 10° SSE
Cosmos 2237 4.3 00:12:37 10° NNW 00:18:25 87° ENE 00:24:09 10° SSE
Cosmos 1908 Rocket 3.6 00:14:27 10° N 00:18:55 83° E 00:22:20 17° SSE
Cosmos 2360 Rocket 3.2 00:15:14 10° NNW 00:20:46 50° NE 00:26:17 10° SE
USA 267 3.2 00:16:11 10° ENE 00:22:46 87° SSE 00:29:20 10° WSW
Cosmos 1455 1.8 00:25:30 10° NNW 00:28:59 89° W 00:31:18 20° S
Cosmos 1733 Rocket 4.1 00:25:52 10° NNW 00:29:39 30° W 00:31:54 19° SW
Resurs 1-4 Rocket 3.2 00:26:17 10° NNE 00:31:09 37° E 00:35:58 10° SSE
Cosmos 841 Rocket 3.5 00:26:02 10° NNW 00:31:15 73° WSW 00:36:21 11° SSE
RESURS DK-1 4.0 00:27:30 10° NNW 00:31:17 35° NE 00:35:02 10° ESE
Cosmos 1400 Rocket 3.9 00:32:16 17° SW 00:34:48 34° WNW 00:38:29 10° N
H-2A R/B 4.0 00:31:55 10° N 00:35:22 22° WNW 00:38:47 10° WSW
Cosmos 2278 3.8 00:34:58 10° NW 00:40:38 63° WSW 00:46:15 10° SSE
H-2A R/B 4.1 00:36:47 10° NNE 00:40:40 46° E 00:43:50 14° S
Cosmos 1346 Rocket 3.9 00:40:01 10° NNW 00:43:22 28° W 00:45:17 19° SW
COBE Rocket 4.3 00:39:07 10° NNE 00:43:57 61° E 00:48:15 14° S
Cosmos 676 Rocket 4.1 00:42:47 18° SSW 00:46:52 81° WNW 00:52:14 10° NNE
Okean 2 3.5 00:49:49 19° SSW 00:52:33 62° WNW 00:56:31 10° N
Cosmos 1954 Rocket 4.3 00:48:42 16° SW 00:52:56 63° WNW 00:58:15 10° NNE
Cosmos 2333 Rocket 2.6 00:47:51 10° NNW 00:53:35 71° NE 00:59:19 10° SE
CZ-2C R/B 2.6 00:48:41 10° SSE 00:53:50 85° ENE 00:59:04 10° NNW
Cosmos 1745 Rocket 4.0 00:48:37 14° S 00:54:01 90° ESE 01:00:22 10° N
Meteor 1-4 Rocket 2.0 00:53:08 22° SSW 00:54:53 73° WNW 00:57:53 10° N
Cosmos 2242 Rocket 4.4 00:53:33 10° SSE 00:57:47 46° E 01:02:06 10° NNE
Cosmos 2098 Rocket 4.3 00:53:15 10° N 00:58:06 53° ENE 01:03:52 10° SSE
Cosmos 2322 Rocket 2.2 00:52:45 10° NNW 00:58:26 85° WSW 01:04:07 10° SSE
Cosmos 1814 Rocket 4.2 00:54:16 10° NNW 00:59:29 78° ENE 01:04:45 10° SSE
USA 234 4.2 00:56:30 10° S 01:01:36 24° SW 01:06:46 10° WNW
Cosmos 1703 Rocket 3.6 00:58:54 16° SSW 01:02:22 71° WNW 01:06:51 10° N
Cosmos 1953 3.1 00:59:14 10° NNW 01:02:49 34° W 01:05:21 16° SSW
NPP 3.7 01:00:06 10° NNE 01:05:32 79° ESE 01:10:33 12° SSW
Cosmos 1980 Rocket 4.0 01:08:19 10° WNW 01:11:21 15° W 01:14:01 11° SW
SL-27 R/B 4.0 01:09:15 10° SSE 01:11:25 20° ESE 01:13:35 10° NE
Nadezhda 1 Rocket 4.4 01:06:20 10° NNW 01:12:28 49° W 01:18:18 11° SSW
Cosmos 1242 Rocket 2.1 01:13:25 14° S 01:15:45 70° ESE 01:18:38 10° NNE
Cosmos 1300 Rocket 3.6 01:11:45 10° NNW 01:16:03 62° W 01:20:17 10° S
ADEOS II 2.6 01:13:10 10° NNE 01:18:21 56° E 01:23:29 10° S
IDEFIX/ARIANE 42P 2.6 01:18:08 10° NNE 01:23:24 76° WNW 01:28:28 11° SSW
Cosmos 1408 2.2 01:21:25 11° S 01:24:11 70° E 01:27:10 10° NNE
COSMOS 2406 3.9 01:19:31 10° SW 01:25:07 49° NW 01:30:44 10° NNE
Lacrosse 5 rocket 2.3 01:21:49 10° WNW 01:25:12 25° SW 01:28:27 10° S
ALOS 3.5 01:21:48 10° NNE 01:26:08 38° E 01:30:26 10° SSE
Cosmos 839 Rocket 4.2 01:18:41 10° NW 01:26:20 78° SW 01:32:39 10° SSE
EXPRESS MD2 4.4 01:27:55 13° SSW 01:30:03 25° SE 01:33:52 10° E
Okean 1-7 4.4 01:30:04 10° SW 01:33:39 27° WNW 01:37:22 10° N
COSMOS 2441 4.4 01:29:13 10° NNE 01:34:03 84° ESE 01:38:50 10° SSW
Cosmos 405 Rocket 3.7 01:33:24 10° N 01:36:52 45° ENE 01:40:22 10° SSE
ATLAS 2AS CENTAUR R/B 2.7 01:33:27 10° NW 01:40:25 87° SW 01:47:05 10° SE
Okean 1 Rocket 4.3 01:37:09 10° N 01:41:20 43° ENE 01:45:27 10° SE
CZ-2C R/B 3.4 01:36:01 10° NNE 01:41:53 89° WNW 01:47:39 10° SSW
SL-16 R/B 3.0 01:37:35 10° NW 01:42:28 31° WSW 01:47:21 10° SSW
Cosmos 1315 Rocket 3.9 01:39:37 10° SW 01:43:03 30° WNW 01:46:34 10° N
Cosmos 2322 4.3 01:38:42 10° NNW 01:44:24 63° NE 01:50:02 10° SE
SJ 16-02 1.5 01:40:11 10° SSW 01:44:28 69° ESE 01:48:47 10° NNE
Cosmos 2333 4.3 01:44:09 10° NW 01:49:49 66° WSW 01:55:30 10° SSE
UNK 3.8 01:45:16 10° SSE 01:49:55 88° ENE 01:54:36 10° NNW
Cosmos 1850 Rocket 4.3 01:46:24 10° SW 01:51:39 62° WNW 01:56:53 10° NNE
Orbus 7S? 3.9 01:50:40 10° WNW 01:53:17 42° N 01:56:23 10° ENE
Cosmos 2082 Rocket 3.6 01:50:26 10° WSW 01:55:30 31° NW 02:00:36 10° NNE
Cosmos 2219 Rocket 2.2 01:50:25 10° NW 01:56:04 77° WSW 02:01:44 10° SSE
Cosmos 2181 Rocket 4.1 01:49:58 10° NNW 01:56:18 64° W 02:02:29 10° S
Cosmos 1709 Rocket 4.4 01:50:09 10° SSW 01:56:18 52° WNW 02:02:33 10° N
CZ-2D R/B 2.5 01:51:15 10° N 01:56:39 59° WNW 02:01:59 10° SW
Cosmos 1741 Rocket 4.3 01:51:36 10° SW 01:56:46 59° WNW 02:02:00 10° NNE
SL-16 R/B 2.7 01:51:10 10° S 01:57:21 61° WSW 02:03:35 10° NNW
AQUA 3.9 01:58:14 10° NNE 02:02:59 79° WNW 02:07:42 10° SSW
Cosmos 1703 3.3 02:00:45 10° SSW 02:04:26 61° WNW 02:08:10 10° N
COSMOS 2428 3.1 01:58:47 10° NNW 02:04:29 71° NE 02:10:09 10° SE
Meteor 1-28 Rocket 3.7 02:01:10 10° SSW 02:04:29 36° W 02:07:49 10° NNW
Cosmos 2360 Rocket 2.7 01:59:27 10° NW 02:04:42 39° WSW 02:09:55 10° S
USA 267 3.7 01:59:13 10° ENE 02:05:42 67° N 02:12:11 10° W
